Regional Weather Roundup
Issued by NWS

Home | Current Version | Previous Version | Text Only | Print | Product List | Glossary On
Versions: 1 2 3 4 5 6 7 8 9 10 11 12 13 14 15 16 17 18 19 20 21 22 23 24 25 26 27 28 29 30 31 32 33 34 35 36 37 38 39 40 41 42 43 44 45 46 47 48 49 50
000
ASUS43 KLMK 271010
RWRKY
KENTUCKY REGIONAL WEATHER ROUNDUP
NATIONAL WEATHER SERVICE LOUISVILLE KY
500 AM EST MON FEB 27 2017

NOTE "FAIR" INDICATES FEW OR NO CLOUDS BELOW 12,000 FEET
WITH NO SIGNIFICANT WEATHER AND/OR OBSTRUCTIONS TO VISIBILITY.

KYZ001>023-026-027-061>063-070>075-271100-
WESTERN AND SOUTH CENTRAL KENTUCKY

CITY           SKY/WX    TMP DP  RH WIND       PRES   REMARKS
PADUCAH        CLOUDY    45  41  86 E3        30.11F
HENDERSON      CLOUDY    43  37  81 SE5       30.16S
OWENSBORO      LGT RAIN  45  40  82 SE5       30.18F
HOPKINSVILLE   LGT RAIN  46  43  91 SE5       30.16S
BOWLING GREEN  LGT RAIN  47  41  80 S6        30.22S
GLASGOW        DRIZZLE   45  39  81 SW3       30.22S
$$

KYZ024-025-028>034-038-045-046-053-271100-
NORTH CENTRAL KENTUCKY

CITY           SKY/WX    TMP DP  RH WIND       PRES   REMARKS
LOUISVILLE/SDF LGT RAIN  47  35  63 S8        30.22S
LOUISVILLE/LOU LGT RAIN  47  37  68 S5        30.22S
FORT KNOX      LGT RAIN  45  37  74 S5        30.19F
$$

KYZ035>037-039>044-047>052-055>060-089>105-271100-
NORTHEAST KENTUCKY

CITY           SKY/WX    TMP DP  RH WIND       PRES   REMARKS
LEXINGTON      LGT RAIN  44  36  73 SW7       30.25R
COVINGTON      CLOUDY    43  22  43 S8        30.21R
FRANKFORT      LGT RAIN  44  37  76 S7        30.23R
$$

KYZ054-064>069-076>088-106>120-271100-
SOUTHEAST KENTUCKY

CITY           SKY/WX    TMP DP  RH WIND       PRES   REMARKS
JACKSON        CLOUDY    42  19  39 VRB3      30.26R
LONDON         CLOUDY    46  29  51 CALM      30.24F
SOMERSET       CLOUDY    41  30  65 CALM      30.25S
MIDDLESBORO    CLOUDY    34  30  84 CALM      30.28R
MONTICELLO     CLOUDY    42  33  70 VRB3      30.26R
$$





USA.gov is the U.S. government's official web portal to all federal, state and local government web resources and services.